Location: Zagreb
(45.8000°N, 16.0000°E)
Time: 19:38:53
(UTC+02:00)

ISS - Visible Passes

Search period start: 17 August 2022 00:00
Search period end: 27 August 2022 00:00
Orbit: 412 x 420 km, 51.6° (Epoch: 17 August)

Date Brightness Start Highest point End Pass type
(mag) Time Alt. Az. Time Alt. Az. Time Alt. Az.
22 Aug -1.2 05:31:37 10° S 05:33:42 16° SE 05:35:48 10° E visible
24 Aug -2.6 05:29:44 10° SSW 05:32:51 37° SE 05:35:59 10° ENE visible
25 Aug -1.9 04:42:27 15° S 04:44:20 23° SE 04:47:03 10° E visible
26 Aug -1.3 03:55:52 14° SE 03:55:52 14° SE 03:57:46 10° E visible
26 Aug -3.7 05:28:47 10° WSW 05:32:09 87° SE 05:35:30 10° ENE visible
